This is the latest recevied weather packets stored in our database for station/object N9WHM. If no packets are shown the sender has not sent any weather packets the latest 10 day(s).
| Time | Temp. | Humidity | Pressure | Rain* | Wind** | Luminosity | Snow |
|---|---|---|---|---|---|---|---|
| 1778227203 | 8.89° C | 55% | 1010.1 hPa | 0 mm | - | 0 W/m² | - |
| 1778226899 | 9.44° C | 54% | 1010 hPa | 0 mm | - | 0 W/m² | - |
| 1778226598 | 9.44° C | 53% | 1010 hPa | 0 mm | - | 0 W/m² | - |
| 1778226295 | 9.44° C | 54% | 1010 hPa | 0 mm | - | 0 W/m² | - |
| 1778225991 | 8.89° C | 54% | 1010.1 hPa | 0 mm | - | 0 W/m² | - |
| 1778225689 | 8.89° C | 55% | 1009.9 hPa | 0 mm | - | 0 W/m² | - |
| 1778225385 | 8.33° C | 57% | 1010 hPa | 0 mm | - | 0 W/m² | - |
| 1778225077 | 8.33° C | 58% | 1010 hPa | 0 mm | - | 0 W/m² | - |
| 1778224774 | 8.33° C | 58% | 1009.7 hPa | 0 mm | - | 0 W/m² | - |
| 1778224472 | 8.89° C | 58% | 1010.1 hPa | 0 mm | - | 0 W/m² | - |
| 1778224169 | 8.89° C | 56% | 1009.8 hPa | 0 mm | - | 0 W/m² | - |
| 1778223866 | 8.89° C | 51% | 1009.8 hPa | 0 mm | - | 0 W/m² | - |
| 1778223565 | 8.89° C | 51% | 1009.7 hPa | 0 mm | - | 0 W/m² | - |
| 1778223262 | 8.89° C | 51% | 1009.8 hPa | 0 mm | - | 0 W/m² | - |
| 1778222960 | 8.33° C | 51% | 1010 hPa | 0 mm | - | 0 W/m² | - |
| 1778222657 | 7.78° C | 52% | 1010.1 hPa | 0 mm | - | 0 W/m² | - |
| 1778222355 | 8.33° C | 53% | 1010 hPa | 0 mm | - | 0 W/m² | - |
| 1778222052 | 8.33° C | 52% | 1009.9 hPa | 0 mm | - | 0 W/m² | - |
| 1778221749 | 7.78° C | 52% | 1009.8 hPa | 0 mm | - | 0 W/m² | - |
| 1778221447 | 7.78° C | 53% | 1009.8 hPa | 0 mm | - | 0 W/m² | - |
| 1778221143 | 8.33° C | 53% | 1009.8 hPa | 0 mm | - | 0 W/m² | - |
| 1778220841 | 8.33° C | 52% | 1009.7 hPa | 0 mm | - | 0 W/m² | - |
| 1778220537 | 8.33° C | 54% | 1009.9 hPa | 0 mm | - | 0 W/m² | - |
| 1778220236 | 7.78° C | 55% | 1010 hPa | 0 mm | - | 0 W/m² | - |
| 1778219936 | 7.78° C | 56% | 1009.9 hPa | 0 mm | - | 0 W/m² | - |
* Rain latest hour (hover to see other rain measurements)
** Current wind speed in m/s (hover to see current wind gust speed)